QPF
0.01 0.05 0.04 0.39 0.60 0.09 0.00 0.01 0.00 0.00 0.00 0.00 0.03 0.12 0.13 0.07 0.01 0.14 0.00 0.00 0.00 0.00 0.00 0.00 0.00 0.00 0.00 0.00 0.00 0.01 0.00 0.00 0.00 0.00 0.00 0.00 0.00 0.00 0.00 0.00 0.00 0.02 0.04 0.03 0.01 0.00 0.00 0.00 0.00
0.02 0.07 0.05 0.14 0.04 0.02 0.05 0.01 0.01 0.01 0.00 0.00 0.02 0.22 0.08 0.03 0.01 0.00 0.00 0.00 0.00 0.00 0.00 0.00 0.00 0.00 0.00 0.00 0.00 0.00 0.00 0.00 0.00 0.00 0.00 0.00 0.00 0.00 0.00 0.00 0.02 0.04 0.02 0.00 0.00 0.01 0.00 0.00 0.00
0.11 0.20 0.07 0.03 0.02 0.01 0.02 0.01 0.01 0.00 0.01 0.01 0.04 0.10 0.04 0.00 0.00 0.00 0.00 0.00 0.00 0.00 0.00 0.00 0.00 0.00 0.00 0.00 0.00 0.00 0.00 0.00 0.00 0.00 0.00 0.00 0.00 0.00 0.00 0.00 0.01 0.00 0.00 0.00 0.00 0.00 0.00 0.00 0.00
0.08 0.58 0.59 0.22 0.02 0.00 0.00 0.00 0.00 0.00 0.00 0.01 0.03 0.00 0.00 0.00 0.00 0.00 0.00 0.00 0.00 0.00 0.00 0.00 0.00 0.00 0.00 0.00 0.00 0.00 0.00 0.00 0.00 0.00 0.00 0.00 0.00 0.00 0.00 0.00 0.00 0.00 0.00 0.00 0.00 0.00 0.00 0.00 0.00
0.07 0.85 0.40 0.09 0.00 0.00 0.00 0.00 0.00 0.00 0.00 0.00 0.01 0.00 0.00 0.00 0.00 0.00 0.00 0.00 0.00 0.00 0.00 0.00 0.00 0.00 0.00 0.00 0.00 0.00 0.00 0.00 0.00 0.00 0.00 0.00 0.00 0.00 0.00 0.00 0.00 0.00 0.00 0.00 0.00 0.00 0.00 0.00 0.00
0.08 0.18 0.16 0.01 0.00 0.00 0.00 0.00 0.00 0.00 0.00 0.00 0.00 0.00 0.00 0.00 0.00 0.00 0.00 0.00 0.00 0.00 0.00 0.00 0.00 0.00 0.00 0.00 0.00 0.00 0.00 0.00 0.00 0.00 0.00 0.00 0.00 0.00 0.00 0.00 0.00 0.00 0.00 0.00 0.00 0.00 0.00 0.00 0.00
0.04 0.10 0.05 0.00 0.00 0.00 0.00 0.00 0.00 0.00 0.00 0.00 0.00 0.00 0.00 0.00 0.00 0.00 0.00 0.00 0.00 0.00 0.00 0.00 0.00 0.00 0.00 0.00 0.00 0.00 0.00 0.00 0.00 0.00 0.00 0.00 0.00 0.00 0.00 0.00 0.00 0.00 0.00 0.00 0.00 0.00 0.00 0.00 0.00
0.37 0.73 0.03 0.01 0.00 0.00 0.00 0.00 0.00 0.00 0.00 0.00 0.00 0.00 0.00 0.00 0.00 0.00 0.00 0.00 0.00 0.00 0.00 0.00 0.00 0.00 0.00 0.00 0.00 0.00 0.00 0.00 0.00 0.00 0.00 0.00 0.00 0.00 0.00 0.00 0.00 0.00 0.00 0.00 0.00 0.00 0.00 0.01 0.03
0.02 0.23 0.07 0.00 0.00 0.00 0.00 0.00 0.00 0.00 0.00 0.00 0.00 0.00 0.00 0.00 0.00 0.00 0.00 0.00 0.00 0.00 0.00 0.00 0.00 0.00 0.00 0.00 0.00 0.01 0.00 0.00 0.01 0.00 0.00 0.00 0.00 0.00 0.00 0.00 0.00 0.00 0.00 0.00 0.00 0.00 0.00 0.07 0.12
0.01 0.02 0.01 0.00 0.00 0.01 0.00 0.00 0.00 0.00 0.00 0.00 0.00 0.00 0.00 0.00 0.00 0.00 0.00 0.00 0.00 0.00 0.00 0.00 0.00 0.00 0.00 0.00 0.00 0.00 0.00 0.00 0.00 0.00 0.00 0.00 0.00 0.00 0.00 0.00 0.00 0.00 0.00 0.00 0.00 0.00 0.04 0.08 0.18
0.04 0.00 0.01 0.01 0.00 0.01 0.00 0.00 0.00 0.00 0.00 0.00 0.00 0.00 0.00 0.00 0.00 0.00 0.00 0.00 0.00 0.00 0.00 0.00 0.00 0.00 0.00 0.00 0.00 0.00 0.00 0.00 0.00 0.00 0.00 0.00 0.00 0.00 0.00 0.00 0.00 0.02 0.01 0.00 0.00 0.00 0.03 0.18 0.47
0.01 0.01 0.00 0.00 0.00 0.00 0.00 0.00 0.00 0.00 0.00 0.00 0.00 0.00 0.00 0.00 0.00 0.00 0.00 0.00 0.00 0.00 0.00 0.00 0.00 0.00 0.00 0.00 0.00 0.00 0.00 0.00 0.00 0.00 0.00 0.00 0.00 0.00 0.00 0.00 0.01 0.04 0.02 0.00 0.01 0.03 0.02 0.10 0.22
0.00 0.01 0.00 0.00 0.00 0.00 0.00 0.00 0.00 0.00 0.00 0.00 0.00 0.00 0.00 0.00 0.00 0.00 0.00 0.00 0.00 0.00 0.00 0.00 0.00 0.00 0.00 0.00 0.00 0.00 0.00 0.00 0.00 0.00 0.00 0.00 0.00 0.00 0.00 0.00 0.00 0.00 0.00 0.01 0.01 0.01 0.03 0.12 0.24
0.01 0.01 0.00 0.00 0.01 0.00 0.00 0.00 0.00 0.00 0.00 0.00 0.00 0.00 0.00 0.00 0.00 0.00 0.00 0.00 0.00 0.00 0.00 0.00 0.00 0.00 0.00 0.00 0.00 0.00 0.00 0.00 0.00 0.00 0.00 0.00 0.00 0.00 0.00 0.00 0.00 0.00 0.00 0.00 0.00 0.00 0.00 0.10 0.23
0.00 0.01 0.01 0.00 0.00 0.00 0.00 0.00 0.01 0.02 0.00 0.00 0.00 0.00 0.00 0.00 0.00 0.00 0.00 0.00 0.00 0.00 0.00 0.00 0.00 0.00 0.00 0.00 0.00 0.00 0.00 0.00 0.00 0.00 0.00 0.00 0.00 0.00 0.00 0.00 0.00 0.00 0.00 0.01 0.01 0.00 0.03 0.10 0.06
0.01 0.02 0.00 0.00 0.00 0.01 0.02 0.01 0.05 0.03 0.02 0.00 0.00 0.00 0.00 0.00 0.00 0.00 0.00 0.00 0.00 0.00 0.00 0.00 0.00 0.00 0.00 0.00 0.00 0.00 0.00 0.00 0.00 0.00 0.00 0.00 0.00 0.00 0.00 0.00 0.00 0.00 0.00 0.01 0.00 0.09 0.09 0.04 0.02
0.00 0.02 0.02 0.00 0.00 0.01 0.01 0.00 0.03 0.05 0.04 0.03 0.01 0.00 0.00 0.00 0.00 0.00 0.00 0.00 0.00 0.00 0.00 0.00 0.00 0.00 0.00 0.00 0.00 0.00 0.00 0.00 0.00 0.00 0.00 0.00 0.00 0.00 0.00 0.00 0.00 0.00 0.00 0.01 0.04 0.07 0.01 0.02 0.02
0.01 0.00 0.00 0.01 0.00 0.00 0.00 0.03 0.02 0.04 0.05 0.07 0.03 0.02 0.04 0.00 0.00 0.00 0.00 0.00 0.00 0.00 0.00 0.00 0.00 0.00 0.00 0.00 0.00 0.00 0.00 0.00 0.00 0.00 0.00 0.00 0.00 0.00 0.00 0.00 0.00 0.00 0.01 0.01 0.00 0.02 0.01 0.00 0.00
0.02 0.00 0.00 0.00 0.00 0.00 0.01 0.05 0.02 0.03 0.06 0.27 0.07 0.03 0.10 0.12 0.01 0.00 0.00 0.00 0.00 0.00 0.00 0.00 0.00 0.00 0.00 0.00 0.00 0.00 0.00 0.00 0.00 0.00 0.00 0.00 0.00 0.00 0.00 0.00 0.01 0.02 0.03 0.02 0.03 0.04 0.03 0.02 0.00
0.01 0.00 0.00 0.00 0.00 0.00 0.02 0.04 0.02 0.02 0.08 0.19 0.18 0.04 0.07 0.12 0.06 0.00 0.00 0.00 0.00 0.00 0.00 0.00 0.00 0.00 0.00 0.00 0.00 0.00 0.00 0.00 0.00 0.00 0.00 0.00 0.00 0.00 0.00 0.01 0.05 0.09 0.03 0.01 0.00 0.00 0.01 0.00 0.00
0.00 0.00 0.00 0.00 0.00 0.00 0.01 0.02 0.00 0.01 0.00 0.00 0.01 0.01 0.03 0.05 0.03 0.01 0.00 0.00 0.00 0.00 0.00 0.00 0.00 0.00 0.00 0.00 0.00 0.00 0.00 0.00 0.00 0.00 0.00 0.00 0.00 0.00 0.01 0.07 0.28 0.32 0.07 0.01 0.00 0.00 0.00 0.00 0.00
0.00 0.00 0.00 0.00 0.00 0.00 0.00 0.00 0.00 0.00 0.00 0.00 0.00 0.00 0.00 0.01 0.02 0.06 0.13 0.00 0.00 0.00 0.00 0.01 0.00 0.00 0.00 0.00 0.00 0.00 0.00 0.00 0.00 0.00 0.00 0.00 0.03 0.08 0.04 0.06 0.09 0.08 0.02 0.05 0.05 0.05 0.01 0.00 0.00
0.00 0.00 0.00 0.00 0.01 0.00 0.00 0.00 0.00 0.00 0.00 0.00 0.00 0.00 0.00 0.00 0.00 0.01 0.00 0.01 0.00 0.00 0.01 0.02 0.01 0.00 0.00 0.00 0.00 0.00 0.00 0.00 0.00 0.00 0.01 0.02 0.03 0.08 0.09 0.09 0.12 0.08 0.03 0.05 0.06 0.03 0.00 0.00 0.00
0.00 0.00 0.00 0.00 0.01 0.06 0.00 0.00 0.00 0.00 0.00 0.00 0.00 0.00 0.00 0.00 0.00 0.00 0.01 0.01 0.01 0.01 0.00 0.03 0.01 0.00 0.00 0.00 0.00 0.00 0.00 0.02 0.04 0.05 0.05 0.07 0.11 0.15 0.11 0.11 0.12 0.13 0.09 0.07 0.03 0.00 0.00 0.00 0.00
0.00 0.00 0.00 0.01 0.00 0.01 0.00 0.00 0.00 0.00 0.00 0.00 0.00 0.00 0.00 0.00 0.00 0.00 0.01 0.01 0.02 0.12 0.12 0.06 0.01 0.01 0.03 0.09 0.03 0.14 0.30 0.23 0.27 0.32 0.25 0.21 0.13 0.11 0.13 0.15 0.16 0.12 0.10 0.05 0.11 0.04 0.01 0.00 0.00
0.00 0.00 0.00 0.00 0.00 0.00 0.00 0.00 0.00 0.00 0.00 0.00 0.00 0.00 0.00 0.00 0.00 0.00 0.00 0.03 0.03 0.32 0.50 0.28 0.02 0.00 0.01 0.05 0.13 0.56 1.06 0.53 0.32 0.41 0.58 0.57 0.51 0.40 0.33 0.44 0.31 0.18 0.09 0.07 0.02 0.01 0.01 0.00 0.01
0.00 0.00 0.00 0.00 0.00 0.00 0.00 0.00 0.00 0.00 0.00 0.00 0.00 0.00 0.00 0.00 0.00 0.00 0.00 0.01 0.03 0.12 0.04 0.06 0.04 0.03 0.10 0.17 0.18 0.18 0.22 0.17 0.07 0.19 0.24 0.16 0.09 0.09 0.12 0.17 0.15 0.11 0.05 0.02 0.00 0.00 0.00 0.00 0.02
0.00 0.00 0.00 0.00 0.00 0.00 0.00 0.00 0.00 0.00 0.00 0.00 0.00 0.00 0.00 0.00 0.00 0.00 0.00 0.00 0.00 0.02 0.04 0.02 0.05 0.12 0.21 0.22 0.15 0.10 0.14 0.24 0.06 0.02 0.03 0.01 0.00 0.00 0.00 0.00 0.00 0.00 0.00 0.00 0.00 0.00 0.00 0.00 0.00
0.00 0.00 0.00 0.00 0.00 0.00 0.00 0.00 0.00 0.00 0.00 0.00 0.00 0.00 0.00 0.00 0.00 0.00 0.00 0.00 0.00 0.00 0.00 0.03 0.05 0.06 0.09 0.13 0.13 0.13 0.22 0.18 0.04 0.02 0.00 0.00 0.00 0.00 0.00 0.00 0.00 0.00 0.00 0.00 0.00 0.00 0.00 0.00 0.00
0.00 0.00 0.00 0.00 0.00 0.00 0.00 0.00 0.00 0.00 0.00 0.00 0.00 0.00 0.00 0.00 0.00 0.00 0.00 0.00 0.00 0.00 0.00 0.02 0.08 0.09 0.10 0.19 0.17 0.25 0.22 0.14 0.07 0.05 0.00 0.00 0.00 0.00 0.00 0.00 0.00 0.00 0.00 0.00 0.00 0.00 0.00 0.00 0.00
MSLP
1008.81 1009.75 1010.08 1009.82 1011.34 1010.36 1007.59 1005.92 1004.71 1004.68 1005.01 1006.32 1006.28 1006.90 1008.42 1009.02 1008.28 1010.53 1011.31 1012.55 1013.27 1014.01 1014.32 1014.53 1014.73 1014.89 1015.12 1015.33 1015.65 1015.96 1015.96 1015.97 1016.08 1016.29 1016.60 1016.88 1017.11 1017.23 1017.37 1017.59 1017.72 1017.85 1018.05 1018.17 1018.38 1018.32 1018.42 1018.59 1018.77
1008.97 1010.08 1010.84 1011.76 1011.70 1009.76 1007.78 1005.77 1005.24 1005.06 1005.26 1006.01 1006.60 1007.11 1008.24 1009.50 1008.73 1009.61 1011.62 1012.39 1012.95 1013.75 1014.24 1014.47 1014.74 1014.96 1015.25 1015.52 1015.76 1015.93 1016.03 1016.11 1016.21 1016.38 1016.75 1017.00 1017.15 1017.35 1017.57 1017.73 1017.87 1018.12 1018.35 1018.41 1018.54 1018.52 1018.56 1018.81 1019.11
1009.66 1010.17 1011.24 1011.69 1010.19 1007.86 1006.33 1005.62 1005.36 1004.95 1004.89 1005.30 1007.42 1007.75 1008.17 1008.95 1009.50 1009.76 1011.29 1012.10 1012.89 1013.55 1014.05 1014.43 1014.73 1014.96 1015.30 1015.57 1015.75 1015.95 1016.10 1016.17 1016.23 1016.55 1016.89 1017.11 1017.21 1017.50 1017.70 1017.84 1018.03 1018.41 1018.61 1018.71 1018.86 1018.81 1018.92 1019.24 1019.41
1009.09 1011.05 1011.85 1011.09 1008.83 1005.98 1004.88 1004.63 1004.39 1004.36 1004.50 1005.55 1006.61 1007.98 1008.64 1008.58 1009.22 1010.15 1011.26 1012.11 1012.84 1013.53 1013.94 1014.36 1014.75 1015.07 1015.34 1015.59 1015.82 1015.99 1016.07 1016.19 1016.41 1016.69 1017.01 1017.16 1017.35 1017.60 1017.83 1018.05 1018.34 1018.64 1018.83 1018.93 1018.96 1019.04 1019.07 1019.39 1019.50
1009.62 1011.67 1011.79 1009.09 1006.40 1004.74 1003.80 1003.47 1003.74 1003.87 1004.63 1005.81 1006.68 1008.28 1008.83 1008.99 1009.40 1010.36 1011.20 1011.96 1012.62 1013.71 1013.96 1014.32 1014.79 1015.15 1015.43 1015.63 1015.87 1016.03 1016.10 1016.28 1016.54 1016.85 1017.13 1017.30 1017.55 1017.75 1017.98 1018.18 1018.46 1018.66 1018.78 1018.95 1019.03 1019.03 1019.14 1019.31 1019.46
1009.55 1011.09 1010.08 1008.22 1005.53 1004.23 1003.40 1002.92 1003.05 1003.84 1004.82 1006.10 1007.00 1008.21 1009.28 1009.46 1009.65 1010.25 1011.04 1011.90 1012.55 1013.39 1013.95 1014.22 1014.80 1015.21 1015.53 1015.68 1015.93 1016.06 1016.13 1016.32 1016.60 1016.89 1017.17 1017.40 1017.65 1017.95 1018.13 1018.33 1018.64 1018.72 1018.73 1019.03 1019.00 1019.06 1019.16 1019.37 1019.62
1010.21 1011.41 1010.41 1007.56 1005.68 1003.81 1002.88 1002.38 1002.89 1003.60 1004.54 1005.67 1006.79 1008.26 1009.39 1009.55 1009.58 1010.41 1011.11 1011.77 1012.60 1013.16 1013.77 1014.23 1014.73 1015.18 1015.49 1015.81 1016.03 1016.18 1016.23 1016.39 1016.54 1016.84 1017.11 1017.45 1017.78 1018.07 1018.20 1018.33 1018.61 1018.64 1018.62 1018.81 1018.81 1018.90 1019.00 1019.36 1019.60
1009.25 1010.16 1009.14 1006.63 1005.01 1003.72 1002.77 1002.61 1003.02 1003.59 1004.35 1005.32 1006.07 1007.61 1008.95 1009.40 1009.51 1009.68 1010.92 1011.77 1012.45 1013.16 1013.70 1014.07 1014.75 1015.30 1015.61 1015.91 1016.16 1016.27 1016.33 1016.50 1016.68 1016.90 1017.18 1017.44 1017.80 1018.09 1018.18 1018.30 1018.48 1018.42 1018.31 1018.43 1018.54 1018.56 1018.68 1019.31 1019.90
1009.64 1009.64 1008.41 1005.84 1004.29 1003.12 1002.73 1003.00 1003.51 1003.87 1004.25 1004.84 1005.17 1006.74 1008.14 1008.91 1009.44 1009.80 1011.08 1011.96 1012.50 1013.09 1013.37 1013.70 1014.16 1014.95 1015.38 1015.67 1015.88 1016.08 1016.23 1016.43 1016.61 1016.87 1017.12 1017.38 1017.74 1017.99 1018.12 1018.23 1018.32 1018.10 1018.06 1018.13 1018.24 1018.27 1018.52 1019.69 1019.91
1009.73 1008.90 1006.39 1004.10 1002.83 1004.16 1002.64 1002.87 1003.52 1004.05 1004.71 1005.47 1006.28 1007.30 1008.03 1008.78 1009.50 1009.81 1010.34 1011.42 1012.00 1012.61 1013.08 1013.45 1013.85 1014.14 1014.78 1015.12 1015.62 1015.99 1016.14 1016.29 1016.53 1016.79 1017.05 1017.35 1017.64 1017.89 1017.85 1017.92 1017.94 1017.81 1017.79 1017.86 1017.82 1017.81 1018.73 1019.55 1019.55
1009.62 1007.15 1005.08 1003.52 1002.32 1002.52 1002.26 1002.94 1003.51 1004.07 1004.63 1005.41 1006.66 1007.50 1008.14 1008.83 1009.40 1009.74 1010.05 1010.45 1011.00 1011.71 1012.28 1012.87 1013.23 1013.58 1014.05 1014.47 1015.20 1015.51 1015.77 1016.00 1016.21 1016.52 1016.82 1017.12 1017.32 1017.50 1017.54 1017.77 1017.87 1017.82 1017.71 1017.74 1017.42 1017.43 1018.47 1018.92 1019.39
1008.65 1005.58 1004.09 1002.15 1001.82 1001.95 1002.95 1003.49 1003.77 1003.89 1004.50 1005.32 1006.29 1007.32 1008.00 1008.70 1009.23 1009.47 1009.67 1009.99 1010.31 1011.16 1011.50 1012.20 1012.43 1013.09 1013.67 1014.16 1014.59 1014.84 1015.15 1015.43 1015.67 1015.91 1016.25 1016.67 1016.87 1016.84 1017.29 1017.53 1017.82 1017.70 1017.46 1017.48 1017.25 1017.49 1018.17 1018.85 1019.36
1007.21 1005.54 1003.17 1001.91 1001.65 1002.24 1002.93 1003.53 1003.69 1004.19 1004.62 1005.60 1006.42 1007.31 1008.03 1008.44 1008.78 1009.05 1009.15 1009.50 1009.97 1010.54 1011.09 1011.76 1012.08 1012.59 1013.04 1013.64 1014.01 1014.37 1014.60 1014.88 1014.98 1015.27 1015.58 1015.95 1016.30 1016.51 1016.67 1016.88 1017.27 1017.30 1017.04 1017.09 1016.95 1017.04 1018.48 1019.70 1019.53
1005.70 1005.18 1003.93 1002.69 1003.04 1002.64 1003.67 1004.82 1004.37 1006.01 1005.98 1005.92 1006.62 1007.41 1007.86 1008.18 1008.35 1008.75 1009.02 1009.51 1009.93 1010.34 1010.79 1011.68 1012.10 1012.32 1012.41 1013.25 1013.71 1013.83 1013.97 1014.27 1014.55 1014.80 1015.07 1015.49 1015.93 1016.18 1016.33 1016.53 1016.50 1016.49 1016.53 1016.65 1016.55 1016.60 1017.67 1019.14 1018.70
1006.06 1005.60 1004.93 1003.99 1004.14 1004.31 1004.72 1005.79 1006.29 1006.47 1006.96 1006.51 1006.46 1006.92 1007.49 1007.90 1007.90 1008.33 1008.72 1009.39 1009.73 1010.23 1010.64 1011.56 1011.96 1012.16 1012.29 1013.01 1013.25 1013.12 1013.52 1013.81 1014.34 1014.55 1014.60 1014.99 1015.42 1015.75 1016.06 1016.26 1016.45 1016.22 1016.41 1016.33 1016.65 1017.07 1017.32 1018.66 1019.28
1007.64 1007.03 1007.03 1005.00 1004.75 1004.93 1005.33 1006.99 1006.82 1006.93 1007.21 1007.58 1006.84 1006.68 1006.88 1007.25 1007.61 1007.99 1008.18 1008.86 1009.49 1010.01 1010.51 1011.08 1011.42 1012.06 1012.51 1012.75 1012.94 1012.98 1013.29 1013.58 1013.78 1014.33 1014.47 1014.72 1015.07 1015.45 1015.83 1016.28 1016.56 1016.19 1016.43 1016.56 1017.17 1017.64 1018.38 1018.48 1018.79
1008.60 1008.17 1007.29 1005.49 1004.38 1004.99 1006.02 1007.31 1006.46 1006.79 1007.24 1007.39 1007.54 1007.13 1006.98 1007.01 1007.26 1007.88 1008.07 1008.51 1009.23 1009.80 1010.39 1010.71 1011.15 1011.72 1012.44 1012.86 1012.91 1012.98 1013.04 1013.61 1013.66 1013.98 1014.25 1014.37 1014.51 1014.95 1015.49 1015.76 1016.03 1015.90 1016.10 1016.76 1017.43 1018.05 1018.08 1018.16 1018.50
1008.97 1007.71 1007.03 1006.09 1005.12 1005.50 1006.86 1008.15 1008.35 1008.01 1008.87 1008.73 1008.21 1008.45 1007.77 1007.09 1006.86 1007.01 1007.40 1008.06 1008.74 1009.40 1010.08 1010.65 1011.14 1011.55 1012.09 1012.71 1013.17 1013.41 1013.32 1013.27 1013.52 1013.71 1013.87 1014.10 1014.23 1014.47 1014.96 1015.25 1015.50 1015.75 1016.46 1016.99 1017.28 1017.60 1018.23 1018.54 1018.35
1007.21 1006.99 1005.96 1005.09 1004.77 1005.79 1006.44 1007.29 1007.81 1009.02 1009.44 1008.98 1007.59 1008.18 1008.45 1007.89 1006.72 1006.79 1006.90 1007.02 1008.11 1008.88 1009.66 1010.32 1011.09 1011.50 1012.05 1012.77 1013.35 1013.70 1013.71 1013.53 1013.59 1013.55 1013.51 1013.74 1013.98 1014.33 1014.72 1014.93 1015.65 1016.41 1016.47 1016.94 1017.46 1017.49 1018.02 1018.81 1018.37
1006.17 1005.28 1004.50 1003.38 1003.80 1005.19 1006.03 1007.05 1007.51 1008.45 1007.47 1008.19 1006.27 1007.57 1007.85 1007.64 1006.15 1006.42 1006.66 1007.16 1007.76 1008.43 1009.00 1009.54 1010.01 1010.90 1011.52 1011.97 1012.60 1013.26 1013.59 1013.62 1013.45 1013.30 1013.36 1013.43 1013.85 1014.13 1014.48 1015.27 1016.08 1016.26 1016.46 1016.76 1016.92 1017.47 1017.73 1018.21 1018.43
1004.22 1003.51 1002.87 1002.49 1003.11 1004.03 1004.72 1006.11 1007.45 1007.53 1007.07 1007.46 1006.75 1006.76 1007.08 1006.17 1006.22 1006.50 1006.04 1006.67 1007.15 1007.96 1008.55 1008.83 1009.39 1010.28 1011.14 1011.82 1012.52 1012.94 1013.31 1013.35 1013.43 1013.41 1013.45 1013.39 1013.48 1013.55 1014.00 1015.18 1015.62 1015.91 1015.98 1016.48 1016.75 1016.90 1017.82 1018.07 1018.60
1002.33 1001.86 1002.08 1002.26 1003.10 1003.84 1004.34 1006.46 1006.25 1005.65 1005.62 1005.79 1005.07 1005.36 1005.50 1005.76 1006.28 1006.24 1005.60 1005.80 1006.02 1007.48 1008.17 1008.84 1009.38 1009.78 1010.59 1011.35 1012.07 1012.50 1012.88 1013.24 1013.15 1013.15 1013.15 1013.43 1013.25 1013.72 1014.31 1014.63 1014.68 1014.94 1015.50 1016.14 1016.34 1016.71 1017.36 1017.78 1018.30
1001.31 1001.12 1001.81 1002.18 1003.44 1004.76 1004.81 1005.60 1005.60 1005.42 1005.21 1004.86 1003.94 1004.05 1004.40 1005.15 1005.27 1005.72 1005.56 1005.57 1006.07 1006.98 1007.01 1008.04 1009.01 1009.78 1010.49 1011.19 1011.22 1012.07 1012.41 1012.53 1012.75 1013.02 1013.17 1013.35 1013.81 1013.85 1013.46 1014.52 1015.21 1014.90 1015.48 1015.82 1016.34 1016.91 1017.39 1017.52 1018.04
1000.38 1000.87 1001.41 1002.99 1005.26 1006.17 1004.60 1004.59 1004.89 1004.79 1003.92 1003.29 1003.12 1003.20 1003.55 1003.76 1004.52 1005.09 1005.18 1005.82 1006.39 1007.00 1008.45 1009.74 1009.19 1009.56 1009.51 1010.58 1011.49 1012.05 1012.58 1012.92 1013.41 1014.01 1014.36 1014.67 1014.75 1015.17 1015.24 1015.24 1015.02 1015.23 1015.86 1016.05 1016.35 1016.72 1017.04 1017.24 1017.52
1000.35 1001.09 1002.42 1005.65 1005.57 1005.24 1003.30 1004.29 1003.44 1002.92 1002.44 1002.49 1002.68 1002.70 1003.09 1003.40 1003.86 1004.03 1005.21 1006.03 1008.47 1008.46 1009.20 1009.98 1010.33 1009.67 1009.70 1010.37 1011.55 1011.27 1012.61 1012.20 1013.06 1013.71 1014.59 1015.04 1015.32 1016.24 1016.12 1015.73 1015.50 1015.46 1015.73 1016.02 1016.31 1016.51 1016.77 1017.14 1017.52
1000.55 1001.33 1002.59 1003.93 1004.63 1003.86 1002.68 1003.24 1002.82 1002.14 1002.00 1002.01 1001.94 1002.13 1002.80 1003.47 1003.66 1004.37 1004.92 1006.47 1007.81 1008.27 1008.70 1008.76 1008.82 1009.58 1009.91 1010.75 1011.32 1011.58 1011.47 1011.94 1012.67 1013.37 1013.65 1014.96 1015.29 1015.66 1016.21 1015.89 1015.30 1015.06 1015.42 1016.27 1016.48 1016.93 1017.17 1017.30 1017.41
1000.36 1001.07 1001.54 1002.90 1003.06 1003.60 1003.46 1003.16 1002.63 1002.36 1002.31 1002.04 1002.07 1002.36 1003.02 1003.61 1003.98 1004.58 1005.20 1006.34 1007.23 1008.12 1008.45 1008.39 1009.05 1009.03 1009.63 1010.29 1010.87 1011.28 1011.47 1011.90 1012.77 1012.99 1013.08 1013.15 1013.76 1014.83 1015.71 1015.73 1015.38 1014.96 1015.32 1015.97 1016.39 1017.08 1017.19 1017.12 1017.09
1000.08 1000.63 1001.64 1002.90 1004.22 1004.41 1003.75 1003.53 1003.28 1002.70 1002.51 1002.24 1002.42 1002.89 1003.39 1003.82 1004.35 1004.88 1005.60 1006.19 1006.86 1007.16 1007.57 1008.14 1008.42 1008.55 1009.08 1009.61 1009.90 1010.46 1010.74 1011.62 1012.13 1012.28 1012.73 1013.61 1014.80 1015.07 1016.23 1015.73 1015.85 1015.21 1015.35 1016.10 1016.61 1017.06 1016.97 1017.13 1016.92
1000.27 1000.88 1001.89 1003.37 1004.24 1004.93 1004.78 1003.92 1002.41 1002.23 1002.06 1002.40 1003.17 1003.44 1003.86 1004.45 1005.01 1005.50 1005.97 1006.44 1007.05 1007.38 1008.05 1008.43 1008.58 1008.82 1008.88 1009.27 1009.43 1010.11 1010.67 1011.38 1011.90 1012.13 1012.36 1013.24 1013.78 1014.87 1015.26 1015.46 1015.88 1015.54 1015.46 1016.09 1016.55 1016.77 1016.80 1017.09 1016.79
999.91 1000.49 1001.70 1003.80 1004.65 1004.49 1004.24 1003.50 1002.09 1002.06 1002.09 1002.64 1003.36 1003.89 1004.44 1004.91 1005.41 1005.88 1006.45 1006.85 1007.29 1007.81 1008.34 1008.78 1009.01 1009.25 1009.30 1009.16 1009.35 1009.74 1010.52 1011.34 1011.80 1011.98 1012.67 1012.74 1013.32 1013.98 1014.54 1014.94 1015.48 1015.49 1015.75 1015.82 1015.93 1016.31 1016.51 1016.57 1016.98
Thickness
5833 5822 5819 5812 5779 5773 5782 5799 5823 5811 5810 5807 5813 5805 5789 5787 5797 5762 5803 5796 5793 5789 5786 5786 5785 5784 5783 5781 5778 5777 5779 5779 5779 5776 5774 5771 5769 5768 5766 5765 5763 5762 5760 5759 5756 5755 5752 5748 5746
5830 5821 5809 5784 5760 5754 5764 5817 5802 5811 5818 5811 5811 5807 5796 5773 5810 5809 5794 5798 5795 5791 5789 5788 5787 5785 5782 5780 5779 5780 5779 5779 5779 5778 5774 5772 5772 5770 5767 5766 5765 5764 5761 5760 5756 5756 5754 5750 5746
5828 5820 5792 5775 5773 5770 5783 5811 5811 5821 5827 5821 5798 5807 5801 5789 5806 5810 5806 5802 5797 5794 5792 5790 5788 5786 5783 5781 5781 5781 5780 5780 5780 5779 5776 5775 5774 5771 5769 5768 5766 5763 5761 5758 5755 5755 5753 5749 5747
5828 5804 5789 5769 5775 5810 5817 5820 5828 5824 5829 5825 5811 5791 5807 5820 5813 5814 5811 5806 5800 5796 5794 5791 5788 5786 5785 5784 5783 5782 5781 5781 5781 5780 5778 5776 5774 5772 5770 5769 5765 5761 5758 5756 5757 5755 5754 5750 5750
5825 5791 5773 5794 5815 5830 5833 5837 5837 5824 5822 5814 5815 5790 5795 5815 5822 5819 5813 5809 5803 5797 5795 5793 5790 5788 5787 5786 5784 5783 5783 5783 5782 5781 5779 5777 5774 5773 5772 5770 5766 5762 5760 5758 5758 5758 5756 5754 5753
5802 5794 5784 5787 5824 5836 5840 5850 5844 5829 5823 5815 5807 5797 5794 5818 5818 5820 5819 5811 5807 5802 5798 5796 5792 5790 5788 5787 5785 5784 5785 5786 5784 5782 5780 5778 5776 5774 5774 5771 5766 5765 5764 5760 5761 5761 5760 5758 5754
5797 5778 5776 5804 5810 5827 5841 5858 5840 5833 5825 5817 5823 5793 5800 5812 5823 5824 5821 5815 5809 5805 5801 5798 5795 5792 5790 5788 5787 5787 5787 5787 5787 5785 5783 5781 5778 5776 5775 5773 5769 5768 5769 5765 5765 5766 5765 5760 5758
5819 5802 5791 5810 5813 5819 5850 5853 5852 5839 5826 5842 5837 5799 5792 5813 5826 5828 5823 5817 5813 5809 5804 5802 5797 5793 5791 5789 5787 5787 5788 5789 5788 5787 5785 5783 5780 5777 5776 5775 5771 5771 5775 5773 5770 5770 5768 5763 5758
5823 5792 5780 5812 5823 5835 5856 5841 5852 5856 5840 5842 5844 5829 5826 5828 5828 5824 5817 5813 5810 5808 5808 5806 5803 5797 5794 5792 5791 5790 5790 5790 5789 5788 5787 5785 5782 5778 5777 5776 5774 5777 5778 5777 5775 5774 5773 5764 5763
5805 5795 5813 5846 5856 5822 5853 5850 5846 5841 5836 5829 5830 5834 5835 5830 5824 5819 5816 5810 5811 5808 5809 5809 5806 5805 5800 5798 5796 5794 5793 5793 5792 5791 5789 5786 5783 5780 5780 5779 5778 5781 5781 5779 5780 5781 5775 5770 5766
5805 5812 5839 5853 5867 5864 5860 5850 5855 5837 5827 5833 5821 5824 5830 5827 5823 5820 5820 5821 5819 5818 5817 5814 5813 5810 5807 5805 5801 5800 5798 5797 5796 5794 5792 5789 5786 5784 5784 5782 5780 5783 5783 5781 5784 5785 5779 5774 5770
5806 5847 5854 5873 5876 5869 5852 5856 5845 5845 5841 5849 5842 5837 5833 5826 5823 5823 5823 5825 5825 5824 5824 5821 5822 5817 5811 5809 5806 5805 5804 5802 5802 5800 5798 5795 5792 5791 5787 5785 5782 5784 5786 5785 5785 5784 5780 5774 5770
5824 5843 5869 5879 5884 5872 5865 5850 5851 5846 5856 5853 5847 5838 5831 5830 5829 5831 5833 5832 5830 5826 5829 5824 5825 5821 5817 5814 5812 5809 5808 5806 5806 5805 5803 5800 5797 5795 5793 5789 5786 5785 5788 5790 5788 5788 5780 5765 5765
5855 5851 5855 5870 5861 5869 5849 5837 5849 5836 5846 5845 5842 5835 5834 5833 5835 5834 5834 5832 5831 5830 5830 5827 5824 5825 5822 5817 5814 5814 5812 5810 5809 5808 5806 5803 5800 5798 5796 5793 5793 5792 5791 5792 5795 5795 5782 5769 5774
5850 5830 5840 5854 5850 5843 5851 5823 5824 5840 5837 5839 5841 5841 5840 5837 5842 5837 5839 5835 5836 5834 5832 5825 5824 5824 5824 5817 5817 5818 5815 5813 5810 5808 5807 5804 5801 5798 5796 5794 5794 5795 5791 5791 5790 5789 5785 5771 5762
5818 5815 5791 5841 5845 5847 5845 5799 5826 5840 5832 5827 5839 5845 5844 5842 5843 5845 5845 5841 5840 5838 5833 5830 5829 5824 5820 5818 5817 5816 5814 5813 5812 5807 5808 5805 5802 5798 5795 5792 5791 5793 5790 5789 5784 5778 5775 5775 5769
5800 5783 5796 5817 5855 5843 5829 5803 5836 5844 5840 5832 5833 5839 5841 5840 5846 5845 5847 5845 5842 5839 5835 5832 5829 5824 5819 5817 5815 5814 5813 5810 5810 5808 5806 5806 5806 5801 5796 5795 5794 5792 5793 5790 5781 5773 5776 5771 5769
5781 5800 5809 5806 5834 5835 5816 5792 5810 5815 5817 5824 5829 5823 5832 5842 5847 5853 5854 5851 5847 5842 5836 5831 5828 5823 5820 5816 5812 5809 5809 5810 5808 5807 5804 5804 5804 5802 5797 5795 5796 5794 5789 5783 5780 5779 5772 5765 5767
5816 5814 5820 5832 5841 5831 5819 5808 5817 5816 5817 5816 5830 5827 5826 5829 5855 5856 5857 5859 5849 5844 5837 5831 5824 5820 5817 5809 5802 5800 5799 5803 5804 5804 5806 5802 5802 5799 5795 5792 5790 5786 5784 5779 5774 5776 5771 5761 5765
5817 5820 5827 5852 5853 5836 5824 5809 5823 5819 5824 5823 5841 5828 5831 5836 5851 5858 5856 5854 5850 5842 5838 5836 5833 5825 5819 5815 5809 5802 5797 5797 5800 5800 5802 5802 5798 5795 5791 5782 5781 5784 5782 5779 5779 5771 5770 5764 5760
5832 5840 5841 5846 5860 5853 5846 5817 5809 5824 5830 5827 5832 5836 5834 5842 5847 5849 5853 5852 5854 5847 5838 5840 5835 5828 5821 5814 5807 5800 5796 5794 5791 5791 5793 5796 5796 5794 5786 5777 5775 5778 5781 5774 5773 5772 5762 5759 5757
5833 5868 5863 5857 5839 5812 5849 5785 5816 5834 5836 5841 5848 5841 5839 5837 5840 5843 5851 5849 5855 5847 5843 5835 5830 5825 5820 5813 5803 5795 5789 5782 5783 5784 5788 5786 5788 5783 5777 5776 5776 5779 5773 5772 5772 5768 5760 5758 5752
5850 5878 5863 5862 5832 5819 5825 5795 5819 5835 5831 5837 5857 5864 5862 5853 5849 5843 5850 5854 5853 5853 5853 5840 5828 5818 5813 5810 5806 5793 5786 5783 5785 5782 5782 5781 5775 5771 5771 5763 5759 5768 5765 5765 5761 5755 5751 5752 5747
5888 5869 5864 5846 5808 5769 5818 5814 5809 5815 5837 5854 5864 5870 5870 5872 5858 5850 5851 5848 5841 5842 5835 5817 5815 5815 5814 5806 5793 5785 5779 5776 5770 5763 5758 5760 5757 5750 5747 5750 5751 5746 5745 5747 5748 5747 5746 5745 5743
5869 5842 5803 5759 5778 5769 5842 5815 5821 5849 5860 5864 5864 5869 5871 5874 5866 5858 5848 5842 5813 5818 5814 5811 5808 5808 5805 5798 5784 5787 5772 5771 5762 5754 5746 5743 5741 5728 5728 5732 5735 5734 5733 5735 5737 5738 5737 5734 5731
5854 5846 5793 5779 5777 5806 5855 5807 5823 5861 5866 5869 5868 5867 5866 5861 5863 5855 5849 5828 5814 5813 5813 5819 5817 5804 5802 5789 5778 5776 5778 5772 5764 5749 5746 5733 5729 5725 5721 5726 5731 5731 5730 5722 5722 5722 5720 5720 5719
5856 5827 5862 5827 5839 5814 5830 5836 5854 5858 5857 5863 5862 5862 5856 5858 5857 5853 5847 5831 5821 5811 5807 5810 5801 5802 5798 5786 5777 5770 5770 5770 5758 5754 5748 5744 5739 5727 5716 5718 5722 5726 5723 5716 5718 5712 5712 5709 5709
5868 5876 5818 5814 5789 5788 5812 5820 5806 5838 5841 5855 5855 5852 5855 5857 5853 5847 5840 5832 5823 5818 5811 5802 5799 5796 5787 5781 5776 5771 5770 5764 5757 5754 5746 5734 5721 5717 5711 5716 5709 5714 5713 5708 5706 5703 5705 5702 5704
5854 5837 5839 5830 5815 5784 5775 5797 5847 5847 5853 5851 5841 5847 5847 5842 5839 5836 5831 5826 5817 5805 5796 5788 5783 5778 5775 5772 5771 5764 5761 5754 5751 5747 5745 5738 5734 5723 5715 5713 5706 5709 5710 5705 5700 5700 5702 5697 5699
5881 5861 5846 5787 5796 5806 5793 5795 5870 5859 5859 5846 5838 5841 5840 5838 5833 5828 5821 5812 5804 5798 5788 5776 5770 5765 5766 5763 5758 5757 5750 5743 5739 5742 5735 5736 5732 5725 5715 5709 5706 5705 5704 5706 5704 5700 5695 5696 5692